Home   Weather   Udon Thani   Past weeks

Flag for Thailand Past Weather in Udon Thani, Thailand — Yesterday and Last 2 Weeks

Now
86 °F

Partly sunny.


Feels Like: 88 °F
Forecast: 67 / 88 °F
Wind: 8 mph from East

Location: Udon Thani Airport

Current Time: Jan 17, 2017 at 3:57:37 pm

Latest Report: Jan 17, 2017 at 3:00 pm


Visibility: N/A

Pressure: 29.89 "Hg

Humidity: 52%

Dew Point: 66 °F

Location of Udon ThaniLocation

Past Weather in Udon Thani — Graph

°F

Udon Thani Temperature Yesterday

Maximum temperature yesterday: 86 °F (at 2:00 pm)
Minimum temperature yesterday: 64 °F (at 7:00 am)
Average temperature yesterday: 76 °F

High & Low Weather Summary for the Past Weeks

 TemperatureHumidityPressure
High90 °F (Jan 3, 3:00 pm)100% (Jan 8, 3:00 am)30.04 "Hg (Jan 8, 3:00 am)
Low64 °F (Jan 16, 7:00 am)43% (Jan 3, 3:00 pm)29.74 "Hg (Jan 7, 3:00 pm)
Average77 °F71%29.88 "Hg
* Reported Jan 2 2:00 pm — Jan 17 2:00 pm, Udon Thani, Weather by CustomWeather, © 2017

Note: Actual official high and low records may vary slightly from our data, if they occured in-between our weather recording intervals... More about our weather records

Advertising

Udon Thani Weather History for the Previous 24 Hours

Scroll right to see more
 ConditionsComfort  
Time TempWeatherWind HumidityBarometerVisibility
2:00 pm
Tue, Jan 17
84 °FPartly sunny.6 mph55%29.92 "HgN/A
1:00 pm82 °FPartly sunny.7 mph55%29.95 "HgN/A
12:00 pm79 °FPartly sunny.8 mph61%29.98 "HgN/A
11:00 am77 °FPartly sunny.6 mph65%30.01 "HgN/A
10:00 am75 °FPartly sunny.5 mph69%30.04 "HgN/A
9:00 am72 °FPartly sunny.3 mph78%30.01 "HgN/A
8:00 am70 °FSunny.No wind83%29.98 "Hg10 mi
7:00 am66 °FSunny.No wind94%29.95 "Hg10 mi
6:00 am68 °FClear.5 mph88%29.95 "Hg10 mi
5:00 am66 °FClear.No wind94%29.92 "Hg10 mi
4:00 am68 °FClear.2 mph88%29.92 "Hg10 mi
3:00 am68 °FClear.No wind88%29.92 "Hg10 mi
2:00 am70 °FClear.2 mph83%29.92 "Hg10 mi
1:00 am70 °FClear.2 mph88%29.92 "Hg10 mi
12:00 am73 °FClear.5 mph74%29.95 "Hg10 mi
11:00 pm
Mon, Jan 16
72 °FPassing clouds.3 mph83%29.95 "HgN/A
10:00 pm73 °FClear.1 mph78%29.92 "Hg10 mi
9:00 pm75 °FClear.No wind74%29.92 "Hg10 mi
8:00 pm79 °FClear.3 mph61%29.92 "Hg10 mi
7:00 pm81 °FPassing clouds.5 mph58%29.89 "HgN/A
6:00 pm82 °FPassing clouds.3 mph55%29.86 "HgN/A
5:00 pm86 °FPassing clouds.2 mph49%29.86 "HgN/A
4:00 pm86 °FPassing clouds.7 mph49%29.86 "HgN/A
3:00 pm86 °FPassing clouds.3 mph49%29.86 "HgN/A
Weather by CustomWeather, © 2017

See weather overviewHow to use our weather pages